[[{"header":{"parameterUnit":"m.s-1","parameterCategory":1,"la1":30.2991,"la2":30.254,"lo1":-89.0895,"lo2":-89.0444,"dy":0.0017,"dx":0.0017,"nx":28,"ny":28,"refTime":"2023-07-22T09:00:00:Z","depth":0,"parameterNumber":2,"parameterNumberName":"U-component_of_WINDS"},"data":[0,0,0,0,0,0,0,0,0,0,0,0,0,0,0,0,0,0,0,0,0,0,0,0,0,0,0,0,0,0,0,0,0,0,0,0,0,0,0,0,0,0,0,0,0,0,0,0,0,0,0,0,0,0,0,0,0,0,2.6949,2.695,0,2.701,2.7011,2.7012,2.7002,2.7001,2.6999,2.6998,2.7067,2.707,2.7072,0,0,0,0,0,0,0,0,0,0,0,0,0,2.683,2.6832,2.6949,2.695,2.695,2.701,2.7011,2.7012,2.7002,2.7,2.6999,2.6998,2.7066,2.7069,2.7073,0,0,0,0,0,0,0,0,0,0,0,0,0,2.6886,2.6833,2.6949,2.6952,2.6953,2.701,2.7011,2.7012,2.7002,2.7,2.6999,2.6997,2.7065,2.7069,2.7073,2.7132,0,0,2.7086,2.7088,0,0,0,0,0,0,0,0,2.6882,2.689,2.6951,2.6952,2.6953,2.6996,2.6994,2.7052,2.7002,2.6984,2.6998,2.6997,2.7045,2.7051,2.7066,2.7135,2.7138,2.7087,2.7089,2.7091,2.7092,0,0,0,0,0,0,0,2.6879,2.6887,2.6973,2.6952,2.6953,2.6953,2.6959,2.7005,2.7023,2.6985,2.6985,2.6992,2.7046,2.7062,2.7068,2.7139,2.7086,2.709,2.7093,2.7094,2.7264,2.7266,0,0,0,0,0,0,2.6873,2.6884,2.6971,2.6975,2.6913,2.6957,2.6964,2.6984,2.7022,2.7026,2.6993,2.6991,2.7056,2.7063,2.707,2.7145,2.7091,2.7095,2.7097,2.7262,2.7265,2.7267,0,0,0,0,0,0,2.687,2.6881,2.6969,2.693,2.6941,2.6961,2.6984,2.6986,2.7003,2.7028,2.7032,2.7006,2.7055,2.7064,2.7117,2.7147,2.7097,2.7101,2.726,2.7263,2.7266,2.7292,0,0,0,0,0,0,2.6867,2.688,2.69,2.693,2.6943,2.7013,2.6986,2.6989,2.701,2.7008,2.7042,2.7046,2.7054,2.7111,2.7121,2.7152,2.7104,2.7257,2.7261,2.7265,2.7289,2.7295,2.7301,0,0,0,0,0,2.6863,2.6905,2.6901,2.6912,2.6969,2.7014,2.7022,2.7029,2.7012,2.7035,2.7051,2.7045,2.7141,2.7116,2.7128,2.716,2.7256,2.726,2.7264,2.7286,2.7294,2.7301,0,0,0,0,0,0,2.688,2.6909,2.6905,2.6958,2.6984,2.7012,2.7041,2.7037,2.7069,2.7066,2.7075,2.7083,2.7138,2.7154,2.7126,2.7221,2.7197,2.7203,2.7209,2.7217,2.7223,2.7219,2.7107,0,0,0,0,0,2.6889,2.6922,2.6947,2.6992,2.7004,2.702,2.7041,2.7044,2.7072,2.7083,2.7103,2.7132,2.7169,2.7194,2.7229,2.729,2.73,2.7319,2.7325,2.733,2.7337,2.7375,2.7385,2.7281,2.7281,2.7281,0,0,2.691,2.693,2.6951,2.6996,2.7016,2.7052,2.703,2.7068,2.7096,2.7089,2.7141,2.7157,2.719,2.7249,2.7276,2.7264,2.7367,2.7336,2.734,2.7344,2.7381,2.739,2.7399,2.7284,2.7284,2.7283,0,0,2.6967,2.6984,2.7025,2.7046,2.7077,2.7088,2.7098,2.7128,2.7138,2.719,2.7186,2.7221,2.7284,2.7309,2.733,2.74,2.7397,2.7411,2.7445,2.7482,2.749,2.7498,2.7526,2.7536,2.7417,2.7417,2.7417,0,2.699,2.7043,2.7047,2.7087,2.7109,2.7103,2.7147,2.7167,2.7209,2.7225,2.7211,2.7292,2.7314,2.738,2.7398,2.7413,2.7428,2.7408,2.7488,2.7496,2.7503,2.753,2.7541,2.7419,2.7419,2.7419,2.7418,0,2.7071,2.7108,2.7138,2.7177,2.7202,2.7244,2.7258,2.7283,2.7285,2.7298,2.7353,2.7379,2.7421,2.7437,2.7439,2.7505,2.7498,2.7486,2.7461,2.7514,2.7541,2.7551,2.7422,2.7421,2.742,2.742,0,0,2.714,2.7183,2.7195,2.7214,2.7249,2.7279,2.7322,2.7362,2.7385,2.7414,2.7454,2.7508,2.7498,2.7522,2.7527,2.7559,2.7618,2.7544,2.7546,2.756,2.7698,2.7708,2.772,2.7616,2.7618,2.7619,2.7696,0,2.7203,2.7277,2.7284,2.7352,2.7389,2.7385,2.7423,2.745,2.7465,2.75,2.7516,2.7556,2.7538,2.7553,2.7585,2.7604,2.7647,2.7599,2.7656,2.7658,2.765,2.7733,2.7744,2.7815,2.7706,2.7708,2.7709,0,2.7286,2.7318,2.739,2.7422,2.7438,2.7472,2.7512,2.7544,2.7576,2.7585,2.7612,2.7614,2.7662,2.7635,2.7704,2.7671,2.7695,2.7708,2.7711,2.7719,2.7688,2.7747,2.7837,2.7849,2.7724,2.7723,2.7722,0,2.7334,2.7395,2.7446,2.7463,2.7501,2.7526,2.7544,2.7574,2.7599,2.7634,2.7651,2.7692,2.7715,2.7748,2.7762,2.774,2.7832,2.7804,2.7844,2.7844,2.7865,2.7864,2.7964,2.7875,2.7875,2.7875,2.7875,0,2.7406,2.745,2.7469,2.7501,2.7552,2.7561,2.7612,2.7629,2.7657,2.7695,2.7694,2.773,2.7745,2.7784,2.7796,2.7853,2.7863,2.7874,2.7877,2.7876,2.7875,2.7893,2.789,2.7878,2.7877,2.7876,2.7876,0,2.7468,2.7482,2.7538,2.7571,2.758,2.7617,2.7646,2.7679,2.7693,2.7741,2.7753,2.7776,2.7823,2.784,2.7896,2.7905,2.7973,2.797,2.7961,2.7963,2.8002,2.8,2.8121,2.8139,2.8035,2.8036,2.8037,0,2.7514,2.7548,2.7585,2.761,2.7628,2.7667,2.7693,2.7704,2.7731,2.7773,2.7802,2.7847,2.7885,2.796,2.7984,2.8029,2.8029,2.8069,2.8036,2.8035,2.8034,2.8033,2.8039,2.8076,2.8077,2.8077,2.8078,0,2.7595,2.7601,2.7637,2.7677,2.7707,2.7739,2.7771,2.7791,2.7808,2.7839,2.7886,2.7915,2.7974,2.8021,2.8067,2.8089,2.8088,2.8088,2.81,2.81,2.8096,2.8102,2.7981,2.8086,2.8085,2.8084,2.8084,2.8084,2.7653,2.7685,2.7717,2.7758,2.7783,2.7813,2.7846,2.7865,2.7904,2.7951,2.7956,2.8008,2.8043,2.8105,2.8129,2.8172,2.8161,2.8178,2.8183,2.8187,2.8192,2.8086,2.818,2.818,2.8179,2.8179,2.8179,0,2.7737,2.7758,2.7796,2.784,2.7874,2.7867,2.7903,2.7932,2.7977,2.8009,2.8047,2.8103,2.815,2.8178,2.8225,2.8255,2.8256,2.8267,2.8267,2.8273,2.8197,2.8183,2.8266,2.8266,2.8266,2.8266,2.8266,2.8266,2.7785,2.784,2.785,2.7919,2.794,2.799,2.8011,2.804,2.8066,2.8129,2.8167,2.8184,2.8216,2.8267,2.831,2.8318,2.8337,2.835,2.8357,2.8286,2.8277,2.8269,2.8256,2.8353,2.8353,2.843,2.8431,2.8431]},{"header":{"parameterUnit":"m.s-1","parameterCategory":1,"la1":30.2991,"la2":30.254,"lo1":-89.0895,"lo2":-89.0444,"dy":0.0017,"dx":0.0017,"nx":28,"ny":28,"refTime":"2023-07-22T09:00:00:Z","depth":0,"parameterNumber":3,"parameterNumberName":"V-component_of_WINDS"},"data":[0,0,0,0,0,0,0,0,0,0,0,0,0,0,0,0,0,0,0,0,0,0,0,0,0,0,0,0,0,0,0,0,0,0,0,0,0,0,0,0,0,0,0,0,0,0,0,0,0,0,0,0,0,0,0,0,0,0,1.7263,1.7264,0,1.737,1.7371,1.7372,1.737,1.7369,1.7367,1.7366,1.7475,1.7479,1.7483,0,0,0,0,0,0,0,0,0,0,0,0,0,1.7055,1.7059,1.7263,1.7264,1.7266,1.737,1.7371,1.7372,1.7371,1.7369,1.7367,1.7365,1.7473,1.7478,1.7483,0,0,0,0,0,0,0,0,0,0,0,0,0,1.7152,1.706,1.7263,1.7277,1.728,1.7369,1.7371,1.7373,1.7371,1.7369,1.7367,1.7365,1.7472,1.7478,1.7484,1.7566,0,0,1.7503,1.7506,0,0,0,0,0,0,0,0,1.7146,1.7159,1.7274,1.7276,1.7279,1.7355,1.7337,1.7438,1.7371,1.7336,1.7366,1.7364,1.7436,1.7445,1.747,1.7571,1.7576,1.7504,1.7508,1.751,1.7512,0,0,0,0,0,0,0,1.714,1.7155,1.7305,1.7275,1.7279,1.7278,1.7289,1.7356,1.7397,1.7339,1.7339,1.7352,1.7437,1.7464,1.7473,1.7577,1.7504,1.7509,1.7513,1.7516,1.7747,1.7749,0,0,0,0,0,0,1.713,1.7149,1.7302,1.7308,1.7206,1.7283,1.7296,1.7333,1.7396,1.7404,1.7354,1.7351,1.7454,1.7465,1.7477,1.7574,1.751,1.7516,1.752,1.7744,1.7747,1.775,0,0,0,0,0,0,1.7126,1.7144,1.7297,1.7229,1.7248,1.7289,1.733,1.7336,1.7362,1.7407,1.7414,1.7374,1.7453,1.7468,1.7543,1.7577,1.7519,1.7525,1.7742,1.7745,1.7748,1.7771,0,0,0,0,0,0,1.712,1.7142,1.7175,1.723,1.7252,1.7363,1.7332,1.7339,1.7373,1.7371,1.7428,1.7435,1.7452,1.7533,1.7549,1.7585,1.753,1.7739,1.7743,1.7747,1.7767,1.7774,1.7781,0,0,0,0,0,1.7112,1.7177,1.7176,1.7195,1.7293,1.7365,1.7378,1.7397,1.7376,1.7408,1.7437,1.7433,1.7572,1.7541,1.7559,1.7597,1.7736,1.7742,1.7747,1.7764,1.7773,1.7781,0,0,0,0,0,0,1.7126,1.7185,1.7184,1.7269,1.7312,1.7365,1.7406,1.7406,1.7456,1.7452,1.7473,1.7486,1.756,1.7587,1.7552,1.7678,1.7651,1.766,1.7658,1.7667,1.7674,1.7665,1.7535,0,0,0,0,0,1.7139,1.7192,1.7241,1.7311,1.7333,1.7365,1.7398,1.7408,1.7453,1.7471,1.7505,1.7549,1.7601,1.7636,1.7688,1.7771,1.7781,1.7806,1.7813,1.7818,1.7825,1.7868,1.7878,1.7767,1.7767,1.7767,0,0,1.7166,1.7205,1.7238,1.7315,1.7349,1.7403,1.7381,1.744,1.7479,1.748,1.7552,1.7579,1.7629,1.7707,1.7744,1.7731,1.7858,1.7825,1.7829,1.7833,1.7874,1.7885,1.7894,1.777,1.777,1.7769,0,0,1.7242,1.7278,1.7339,1.7373,1.7425,1.7446,1.7461,1.7513,1.753,1.7603,1.7604,1.7651,1.7743,1.7777,1.7806,1.7892,1.789,1.7909,1.7944,1.7985,1.7994,1.8002,1.8029,1.8039,1.7916,1.7916,1.7916,0,1.7269,1.7351,1.737,1.7428,1.7461,1.7464,1.7524,1.7556,1.7623,1.7644,1.763,1.7742,1.7777,1.7861,1.7882,1.7907,1.7922,1.7902,1.7991,1.7999,1.8007,1.8033,1.8044,1.7917,1.7917,1.7917,1.7917,0,1.738,1.7436,1.7479,1.7541,1.7579,1.7638,1.7665,1.77,1.7707,1.7729,1.7801,1.7842,1.79,1.7921,1.793,1.8007,1.7997,1.7987,1.796,1.8019,1.8044,1.8054,1.792,1.7919,1.7919,1.7918,0,0,1.7468,1.7539,1.7554,1.758,1.7637,1.768,1.7739,1.7795,1.7823,1.7869,1.7916,1.7992,1.7982,1.8015,1.8027,1.8063,1.8124,1.8048,1.805,1.8058,1.8208,1.8214,1.8225,1.8124,1.8126,1.8128,1.8203,0,1.7548,1.7651,1.7668,1.7758,1.7809,1.7811,1.7861,1.79,1.7922,1.7967,1.7991,1.8043,1.8028,1.8047,1.8083,1.8109,1.8154,1.8105,1.8166,1.8168,1.8151,1.8239,1.8246,1.8315,1.8213,1.8215,1.8216,0,1.7655,1.7701,1.7796,1.7842,1.7864,1.7909,1.796,1.8004,1.8047,1.806,1.8096,1.8103,1.8161,1.8132,1.8211,1.8177,1.8203,1.8219,1.8222,1.8227,1.8194,1.8244,1.8338,1.8347,1.8233,1.8231,1.823,0,1.7706,1.7792,1.7859,1.7882,1.7939,1.797,1.7995,1.8036,1.8068,1.8113,1.8133,1.8184,1.8212,1.825,1.8269,1.8247,1.8346,1.832,1.8356,1.8355,1.8375,1.8373,1.8473,1.8396,1.8396,1.8396,1.8396,0,1.7792,1.7849,1.7882,1.7923,1.7985,1.8005,1.8066,1.809,1.8127,1.8171,1.8177,1.8218,1.8242,1.8286,1.8302,1.8363,1.8376,1.8386,1.8389,1.8384,1.8383,1.84,1.8395,1.8399,1.8398,1.8397,1.8397,0,1.7859,1.7884,1.7956,1.8003,1.8016,1.806,1.81,1.8139,1.816,1.8215,1.8229,1.8262,1.8314,1.8337,1.8402,1.8412,1.848,1.8481,1.8465,1.8466,1.85,1.8495,1.8612,1.8627,1.8543,1.8544,1.8544,0,1.7911,1.7954,1.8006,1.8035,1.8061,1.811,1.8141,1.8161,1.8194,1.8245,1.8277,1.8329,1.8371,1.8454,1.8482,1.8531,1.8531,1.8569,1.8539,1.8531,1.8528,1.8524,1.8527,1.8574,1.8575,1.8575,1.8576,0,1.7999,1.8009,1.8055,1.8104,1.8142,1.8182,1.8221,1.8245,1.8271,1.8307,1.8359,1.8392,1.8457,1.8507,1.8557,1.8582,1.8582,1.8585,1.8596,1.859,1.8578,1.8582,1.8478,1.8582,1.8582,1.8581,1.8581,1.858,1.8059,1.8096,1.8137,1.8187,1.8218,1.8254,1.8292,1.8317,1.8361,1.8415,1.8424,1.848,1.8519,1.8586,1.8612,1.8654,1.8645,1.8661,1.8665,1.8668,1.8668,1.8573,1.8664,1.8664,1.8664,1.8663,1.8663,0,1.8145,1.8171,1.8217,1.827,1.8309,1.8307,1.8349,1.8381,1.843,1.8467,1.8508,1.8567,1.8615,1.8647,1.8695,1.8723,1.8724,1.8735,1.8732,1.8737,1.8675,1.866,1.8733,1.8733,1.8733,1.8733,1.8733,1.8733,1.8194,1.8256,1.827,1.8347,1.8373,1.8427,1.8451,1.8483,1.8512,1.8578,1.8618,1.8638,1.8672,1.8722,1.8766,1.8774,1.879,1.8801,1.8808,1.8749,1.8742,1.8735,1.872,1.8805,1.8805,1.8865,1.8866,1.8866]}]]